Location: Belvedere Heights
(33.9836°N, 117.3109°W)
Time: 00:27:52
(UTC+00:00)

COSMOS 1867 COOLANT - Visible Passes

Search period start: 24 April 2024 00:00
Search period end: 04 May 2024 00:00
Orbit: 767 x 797 km, 65.0° (Epoch: 23 April)

Date Brightness Start Highest point End Pass type
(mag) Time Alt. Az. Time Alt. Az. Time Alt. Az.
24 Apr ? 07:11:47 10° NNW 07:12:54 16° NNW 07:12:54 16° NNW visible
25 Apr ? 06:38:25 10° NNW 06:40:10 19° N 06:40:10 19° N visible
26 Apr ? 06:05:11 10° N 06:07:28 20° NNE 06:07:28 20° NNE visible
27 Apr ? 05:32:07 10° N 05:34:48 18° NNE 05:34:48 18° NNE visible
27 Apr ? 07:14:29 10° NW 07:15:20 15° NW 07:15:20 15° NW visible
28 Apr ? 04:59:19 10° NNE 05:02:10 14° NE 05:02:10 14° NE visible
28 Apr ? 06:40:49 10° NNW 06:42:41 22° NNW 06:42:41 22° NNW visible
29 Apr ? 04:28:06 10° NE 04:28:17 10° NE 04:28:28 10° NE visible
29 Apr ? 06:07:17 10° NNW 06:10:04 31° NNW 06:10:04 31° NNW visible
30 Apr ? 05:33:50 10° NNW 05:37:29 36° NNE 05:37:29 36° NNE visible
01 May ? 05:00:30 10° N 05:04:56 32° NE 05:04:56 32° NE visible
01 May ? 06:44:03 10° NW 06:45:28 17° WNW 06:45:28 17° WNW visible
02 May ? 04:27:19 10° N 04:31:39 24° NE 04:32:25 23° ENE visible
02 May ? 06:10:07 10° NW 06:12:57 28° WNW 06:12:57 28° WNW visible
03 May ? 03:54:19 10° N 03:57:50 17° NE 03:59:56 14° ENE visible
03 May ? 05:36:21 10° NW 05:40:29 50° WNW 05:40:29 50° WNW visible
